Regional Weather Roundup
Issued by NWS Cleveland, OH

Home | Current Version | Previous Version | Text Only | Print | Product List | Glossary On
Versions: 1 2 3 4 5 6 7 8 9 10 11 12 13 14 15 16 17 18 19 20 21 22 23 24 25 26 27 28 29 30 31 32 33 34 35 36 37 38 39 40 41 42 43 44 45 46 47 48 49 50
000
ASUS41 KCLE 192112
RWRCLE
OHIO REGIONAL WEATHER ROUNDUP
NATIONAL WEATHER SERVICE WILMINGTON, OH
500 PM EDT SAT AUG 19 2017

NOTE: "FAIR" INDICATES FEW OR NO CLOUDS BELOW 12,000 FEET WITH NO
SIGNIFICANT WEATHER AND/OR OBSTRUCTIONS TO VISIBILITY.

OHZ001>008-015>018-024>027-034-035-043-044-192200-
   NORTHWEST OHIO

CITY           SKY/WX    TMP DP  RH WIND       PRES   REMARKS
DEFIANCE       FAIR      80  59  48 VRB5      29.95R
FINDLAY        FAIR      83  59  44 W9        29.94R
TOLEDO EXPRESS FAIR      81  58  45 VRB7      29.93S
TOLEDO EXEC    FAIR      82  57  42 W7        29.93S
LIMA           FAIR      80  58  46 W9        29.95S
$$

OHZ009>014-019>023-028>033-038-089-192200-
   NORTHEAST OHIO

CITY           SKY/WX    TMP DP  RH WIND       PRES   REMARKS
CLE-HOPKINS    FAIR      82  60  47 NW16      29.94R
CLE-LAKEFRONT  FAIR      77  65  66 W9        29.92R
CUY CO. ARPT   MOSUNNY   77  64  65 W15       29.93S
LORAIN-ELYRIA  FAIR      77  60  55 NW10      29.94R
ASHTABULA      FAIR      73  63  70 NW13G21   29.93R
AKRON-CANTON   FAIR      83  59  44 NW10      29.92F
WOOSTER        FAIR      79  60  52 NW13G18   29.94S
MANSFIELD      FAIR      80  59  48 W12       29.95S
YOUNGSTOWN     PTSUNNY   77  60  55 NW13      29.91F
$$

OHZ042-051>053-060>062-070>072-077>081-192200-
  SOUTHWEST OHIO

CITY           SKY/WX    TMP DP  RH WIND       PRES   REMARKS
CINC-COVINGTON FAIR      87  67  51 W9        29.93F HX  90
CINC-LUNKEN    FAIR      85  68  56 SW6       29.92F
HAMILTON       FAIR      88  69  53 W7        29.93F HX  92
DAYTON         FAIR      84  64  50 W10       29.95S
WRIGHT-PAT AFB MOSUNNY   85  64  50 W8        29.93S
DAYTON GENERAL FAIR      85  64  49 W10       29.93F
WILMINGTON     FAIR      84  67  56 SW10G18   29.94F
$$

OHZ036-037-039>041-045>050-054>059-063>069-073>076-082>088-192200-
  CENTRAL AND SOUTHEAST OHIO

CITY           SKY/WX    TMP DP  RH WIND       PRES   REMARKS
COLUMBUS       PTSUNNY   82  65  56 NW15      29.91F
OSU AIRPORT    PTSUNNY   79  68  69 W7        29.93R
BOLTON FIELD   MOSUNNY   82  68  61 W9        29.93F
RICKENBACK AFB FAIR      84  68  58 W12       29.91F
NEWARK         TSTM      68  65  90 N8        29.94F FOG
MARION         FAIR      81  55  40 NW14G21   29.94F
LANCASTER      FAIR      84  67  56 SW13      29.93S
ZANESVILLE     TSTM      68  61  78 S13       29.94S
NEW PHILLY     FAIR      73  70  90 SE3       29.94S
$$




USA.gov is the U.S. government's official web portal to all federal, state and local government web resources and services.